Flag for Romania Weather past 2 weeks in Brăila, Romania

Now
36 °F

Fog.


Feels Like: 36 °F
Forecast: 32 / 41 °F
Wind: 2 mph from South

Location: Galati

Current Time: Dec 20, 2014 at 3:18:27 AM

Latest Report: Dec 20, 2014 at 2:00 AM


Visibility: 0 mi

Pressure: 30.03 "Hg

Humidity: 100%

Dew point: 36 °F

Location of BrăilaLocation

Historic Weather in Brăila — Graph

°F

Brăila temperature yesterday

Maximum temperature yesterday: 36 °F (at 10:00 PM)
Minimum temperature yesterday: 33 °F (at 9:00 AM)
Average temperature yesterday: 35 °F

Past Weeks' High & Low Weather Summary

 TemperatureHumidityPressure
High46 °F (Dec 13, 3:00 PM)100% (Dec 5, 2:00 AM)30.39 "Hg (Dec 5, 2:00 AM)
Low29 °F (Dec 15, 7:00 AM)72% (Dec 13, 3:00 PM)29.86 "Hg (Dec 17, 6:00 PM)
Average34 °F98%30.15 "Hg
* Reported Dec 5 2:00 AM — Dec 20 2:00 AM, Brăila, Weather by CustomWeather, © 2014

Note: Actual official high and low records may vary slightly from our data, if they occured in-between our weather recording intervals... More about our weather records

Advertising

Brăila weather history for previous 24 hours

 ConditionsComfort  
Time TempWeatherWind HumidityBarometerVisibility
2:00 AM
Dec 20
36 °FFog.2 mph100%30.03 "Hg1 mi
1:00 AM36 °FFog.2 mph100%30.04 "Hg1 mi
12:00 AM36 °FFog.2 mph100%30.07 "Hg1 mi
10:00 PM
Dec 19
36 °FFog.3 mph100%30.08 "Hg0 mi
9:00 PM36 °FFog.3 mph100%30.09 "Hg0 mi
8:00 PM36 °FFog.3 mph100%30.07 "Hg0 mi
7:00 PM35 °FFog.3 mph100%30.10 "Hg0 mi
6:00 PM36 °FFog.2 mph100%30.10 "Hg0 mi
5:00 PM36 °FFog.3 mph100%30.10 "Hg0 mi
4:00 PM36 °FFog.3 mph100%30.10 "Hg0 mi
3:00 PM35 °FFog.3 mph100%30.11 "Hg0 mi
2:00 PM35 °FFog.3 mph100%30.12 "Hg0 mi
1:00 PM34 °FFog.5 mph100%30.14 "Hg0 mi
12:00 PM34 °FFog.3 mph100%30.15 "Hg0 mi
11:00 AM33 °FFog.5 mph100%30.16 "Hg0 mi
10:00 AM33 °FFog.3 mph100%30.17 "Hg0 mi
9:00 AM33 °FFog.2 mph100%30.17 "Hg0 mi
8:00 AM34 °FFog.2 mph100%30.16 "Hg0 mi
7:00 AM34 °FFog.2 mph100%30.16 "Hg0 mi
6:00 AM34 °FFog.3 mph100%30.16 "Hg0 mi
4:00 AM35 °FFog.3 mph100%30.16 "Hg0 mi
3:00 AM35 °FFog.2 mph100%30.16 "Hg0 mi
Weather by CustomWeather, © 2014

See weather overviewHow to use our weather pages